Probability
0 0 0 0 0 0 0 0 0 0 0 0 0 0 0 0 0 0 0 0 0 0 0 0 0 0 0 0 0 0 0 0 0 0 0 0 0 0 0 0 0 0 0 0
0 0 0 0 0 0 0 0 0 0 0 0 0 0 0 0 0 0 0 0 0 0 0 0 0 0 0 0 0 0 0 0 0 0 0 0 0 0 0 0 0 0 0 0
0 0 0 0 0 0 0 0 0 0 0 0 0 0 0 0 0 0 0 0 0 0 0 0 0 0 0 0 0 0 0 0 0 0 0 0 0 0 0 0 0 0 0 0
0 0 0 0 0 0 0 0 0 0 0 0 0 0 0 0 0 0 0 0 0 0 0 0 0 0 0 0 0 0 0 0 0 0 0 0 0 0 0 0 0 0 0 0
0 0 0 0 0 0 0 0 0 0 0 0 0 0 0 0 0 0 0 0 0 0 0 0 0 0 0 0 0 0 0 0 0 0 0 0 0 0 0 0 0 0 0 0
0 0 0 0 0 0 0 0 0 0 0 0 0 0 0 0 0 0 0 0 0 0 0 0 0 0 0 0 0 0 0 0 0 0 0 0 0 0 0 0 0 0 0 0
0 0 0 0 0 0 0 0 0 0 0 0 0 0 0 0 0 0 0 0 0 0 0 0 0 0 0 0 0 0 0 0 0 0 0 0 0 0 0 0 0 0 0 0
0 0 0 0 0 0 0 0 0 0 0 0 0 0 0 0 0 0 0 0 0 0 0 0 0 0 0 0 0 0 0 0 0 0 0 0 0 0 0 0 0 0 0 0
0 0 0 0 0 0 0 0 0 0 0 0 0 0 0 0 0 0 0 0 0 0 0 0 0 0 0 0 0 0 0 0 0 0 0 0 0 0 0 0 0 0 0 0
0 0 0 0 0 0 0 0 0 0 0 0 0 0 0 0 0 0 0 0 0 0 0 0 0 0 0 0 0 0 0 0 0 0 0 0 0 0 0 0 0 0 0 0
0 0 0 0 0 0 0 0 0 0 0 0 0 0 0 0 0 0 0 0 0 0 0 0 0 0 0 0 0 0 0 0 0 0 0 0 0 0 0 0 0 0 0 0
0 0 0 0 0 0 0 0 0 0 0 0 0 0 0 0 0 0 0 0 0 0 0 0 0 0 0 0 0 0 0 0 0 0 0 0 0 0 0 0 0 0 0 0
0 0 0 0 0 0 0 0 0 0 0 0 0 0 0 0 0 0 0 0 0 0 0 0 0 0 0 0 0 0 0 0 0 0 0 0 0 0 0 0 0 0 0 0
0 0 0 0 0 0 0 0 0 0 0 0 0 0 0 0 0 0 0 0 0 0 0 0 0 0 0 0 0 0 0 0 0 0 0 0 0 0 0 0 0 0 0 0
0 0 0 0 0 0 0 0 0 0 0 0 0 0 0 0 0 0 0 0 0 0 0 0 0 0 0 0 0 0 0 0 0 0 0 0 0 0 0 0 0 0 0 0
0 0 0 0 0 0 0 0 0 0 0 0 0 0 0 0 0 0 0 0 0 0 0 0 0 0 0 0 0 0 0 0 0 0 0 0 0 0 0 0 0 0 0 0
0 0 0 0 0 0 0 0 0 0 0 0 0 0 0 0 0 0 0 0 0 0 0 0 0 0 0 0 0 0 0 0 0 0 0 0 0 0 0 0 0 0 0 0
0 0 0 0 0 0 0 0 0 0 0 0 0 0 0 0 0 0 0 0 0 0 0 0 0 0 0 0 0 0 0 0 0 0 0 0 0 0 0 0 0 0 0 0
0 0 0 0 0 0 0 0 0 0 0 0 0 0 0 0 0 0 0 0 0 0 0 0 0 0 0 0 0 0 0 0 0 0 0 0 0 0 0 0 0 0 0 0
0 0 0 0 0 0 0 0 0 0 0 0 0 0 0 0 0 0 0 0 0 0 0 0 0 0 0 0 0 0 0 0 0 0 0 0 0 0 0 0 0 0 0 0
0 0 0 0 0 0 0 0 0 0 0 0 0 0 0 0 0 0 0 0 0 0 0 0 0 0 0 0 0 0 0 0 0 0 0 0 0 0 0 0 0 0 0 0
0 0 0 0 0 0 0 0 0 0 0 0 0 0 0 0 0 0 0 0 0 0 0 0 0 0 0 0 0 0 0 0 0 0 0 0 0 0 0 0 0 0 0 0
0 0 0 0 0 0 0 0 0 0 0 0 0 0 0 0 0 0 0 0 0 0 0 0 0 0 0 0 0 0 0 0 0 0 0 0 0 0 0 0 0 0 0 0
0 0 0 0 0 0 0 0 0 0 0 0 0 0 0 0 0 0 0 0 0 0 0 0 0 0 0 0 0 0 0 0 0 0 0 0 0 0 0 0 0 0 0 0
0 0 0 0 0 0 0 0 0 0 0 0 0 0 0 0 0 0 0 0 0 0 0 0 0 0 0 0 0 0 0 0 0 0 0 0 0 0 0 0 0 0 0 0
0 0 0 0 0 0 0 0 0 0 0 0 0 0 0 0 0 0 0 0 0 0 0 0 0 0 0 0 0 0 0 0 0 0 0 0 0 0 0 0 0 0 0 0
0 0 0 0 0 0 0 0 0 0 0 0 0 0 0 0 0 0 0 0 0 0 0 0 0 0 0 0 0 0 0 0 0 0 0 0 0 0 0 0 0 0 0 0
Wind_Speed
6 4 3 6 8 9 10 10 10 10 9 10 7 5 4 2 1 1 1 1 1 2 2 3 3 3 3 3 3 2 2 2 2 2 2 2 2 2 2 2 2 2 2 3
5 4 5 8 11 12 12 11 11 10 12 7 3 2 2 2 2 1 1 1 2 2 3 3 3 3 3 3 3 2 2 2 3 2 2 2 2 2 2 2 2 2 3 3
5 2 2 10 12 13 9 8 9 13 11 3 2 4 4 4 3 2 2 2 2 2 2 3 3 3 3 3 3 2 2 3 3 2 2 2 2 2 2 2 2 2 3 3
2 1 10 9 2 7 8 7 8 7 5 5 5 3 2 2 2 2 2 2 2 2 2 2 3 3 3 3 2 2 2 3 3 3 3 3 2 2 2 2 2 3 3 3
4 5 9 7 3 5 6 7 6 7 5 3 3 2 2 1 1 2 2 2 2 2 2 2 3 3 3 3 3 2 3 3 4 3 3 3 3 3 2 2 3 3 3 3
4 5 9 6 2 2 3 6 3 5 5 5 4 3 4 2 1 0 1 1 1 2 2 2 3 3 2 3 3 4 4 4 4 3 3 3 3 3 3 2 3 3 3 3
7 7 9 6 2 3 5 6 1 3 3 4 4 3 2 1 1 0 1 1 2 2 2 2 3 2 2 3 4 5 5 5 4 4 3 3 3 3 3 2 3 3 3 3
6 7 10 2 3 5 4 1 1 1 2 2 2 2 2 1 1 1 2 2 2 2 2 3 3 2 2 4 5 5 4 4 4 4 3 3 3 3 2 2 3 3 3 3
8 7 2 2 3 1 1 1 0 0 1 3 2 2 1 1 1 2 2 2 2 2 2 3 3 2 3 5 5 4 4 4 4 4 4 3 2 2 2 2 2 3 3 3
4 4 3 1 1 1 2 1 1 1 1 2 1 1 0 1 2 2 2 2 2 2 3 3 4 4 3 5 4 4 4 4 4 4 4 3 2 2 2 2 3 3 3 4
4 3 2 1 1 1 1 2 2 2 2 1 2 0 0 1 2 2 3 3 2 2 3 4 4 4 4 4 4 4 4 4 4 4 3 3 3 3 3 4 4 4 4 3
5 3 3 3 1 2 2 1 1 1 2 2 1 0 1 1 2 2 2 3 3 3 3 4 4 5 4 4 3 3 4 4 3 3 3 3 3 4 5 5 7 7 7 6
2 1 1 1 1 1 1 1 1 2 1 1 1 1 0 1 2 2 2 3 3 4 4 5 5 5 5 4 4 3 4 4 3 3 3 3 3 3 5 6 7 7 8 9
2 2 1 1 1 2 1 1 2 3 2 1 1 1 1 1 2 2 3 3 4 4 4 4 5 6 6 5 4 4 4 4 4 3 3 3 3 3 3 4 5 5 7 9
4 2 1 1 2 2 2 2 2 2 2 2 2 1 1 2 3 4 4 3 4 4 4 4 5 6 5 5 4 4 4 3 3 3 3 3 3 3 3 3 4 5 5 6
3 3 2 2 1 1 1 1 0 1 2 2 2 2 2 2 3 4 4 3 3 5 5 5 6 6 5 5 4 4 3 4 4 3 3 3 3 3 3 3 4 4 5 5
1 1 1 2 2 2 2 2 2 2 2 2 3 3 2 2 3 4 4 3 3 5 5 5 6 6 5 5 4 3 3 3 4 3 3 3 3 3 3 4 4 4 5 6
2 2 2 3 3 3 3 2 1 2 2 3 3 2 2 3 4 5 5 5 5 5 5 5 5 5 4 4 3 3 3 3 3 3 3 3 3 3 3 4 5 5 5 6
3 2 2 2 2 2 2 1 2 2 2 2 2 3 3 4 4 4 4 4 4 5 5 4 8 6 5 5 4 2 3 3 3 3 3 4 4 3 3 4 4 4 5 5
3 3 2 2 2 1 1 2 2 2 2 2 2 3 4 4 3 4 4 4 4 4 5 6 6 5 5 5 5 3 3 3 3 3 3 3 3 4 4 4 4 5 5 5
3 3 3 2 2 2 2 2 2 2 3 2 2 4 5 5 4 3 3 5 4 4 5 6 4 4 4 4 4 3 3 3 3 3 3 4 4 4 4 4 5 5 5 5
2 2 3 3 2 3 3 2 2 2 3 3 3 3 4 4 4 4 4 4 5 5 5 4 4 5 6 5 3 3 3 3 3 3 4 4 4 4 5 5 5 5 5 5
2 2 2 2 2 2 3 2 2 2 3 3 4 4 4 4 3 3 5 3 4 7 6 5 7 8 7 4 3 3 3 3 4 4 4 4 4 5 5 5 5 5 5 5
2 2 2 2 2 2 3 4 3 3 3 4 4 4 4 4 4 3 4 5 6 8 6 7 9 9 7 3 3 3 3 4 4 4 4 4 4 4 5 5 6 6 6 7
2 2 2 2 2 2 3 4 4 4 4 4 4 4 4 3 4 5 4 5 7 7 6 7 9 8 5 3 3 4 4 4 4 4 4 5 5 5 5 5 6 6 6 6
2 2 2 2 2 2 2 2 3 3 4 4 5 4 4 3 4 5 4 5 6 6 5 5 5 5 4 4 4 5 5 5 5 5 5 5 6 6 6 6 7 6 6 6
2 1 1 2 2 2 2 2 3 4 3 4 5 5 4 4 4 5 5 5 5 5 4 4 4 4 4 4 4 5 5 4 5 5 5 5 5 6 6 7 6 6 6 6
Wind_Direction
249 250 214 223 225 212 214 216 219 238 239 246 235 228 237 237 202 127 83 360 340 336 337 342 344 340 334 329 330 331 328 320 307 311 313 315 309 298 295 288 274 265 260 261
263 240 235 252 238 223 227 227 233 248 257 252 233 193 199 214 204 194 228 285 318 333 340 340 336 332 332 324 317 316 300 297 310 324 326 321 313 306 303 296 291 283 266 258
247 247 296 254 226 211 213 214 207 231 241 188 191 194 210 217 210 218 248 283 300 307 311 317 316 321 318 314 316 315 304 308 313 314 313 311 311 310 296 289 289 280 272 264
208 138 230 241 195 192 206 230 221 233 231 199 203 197 208 208 190 220 260 276 283 292 303 311 314 320 319 327 330 317 314 318 318 312 306 310 307 295 292 288 277 271 272 271
179 222 265 281 232 183 197 247 231 227 229 210 180 125 275 241 190 220 255 263 266 282 291 313 322 324 331 333 336 330 318 314 309 304 300 304 297 293 291 287 283 276 274 273
188 205 234 251 236 226 154 256 231 205 209 203 168 209 242 214 172 231 335 330 330 334 338 336 329 333 342 334 335 323 314 308 305 300 292 288 286 291 296 289 281 281 279 275
210 227 254 261 260 119 176 241 209 190 193 174 189 218 177 132 99 61 7 358 3 358 341 327 328 341 340 331 319 312 313 313 313 309 300 293 295 299 301 298 296 289 283 284
187 212 247 242 138 181 220 346 61 124 152 157 160 112 102 98 59 28 8 359 1 353 333 334 341 347 334 321 317 319 318 316 315 314 310 306 299 301 301 290 287 289 293 298
195 210 234 159 185 235 100 137 8 78 120 139 138 145 114 12 357 358 356 348 348 344 330 337 345 342 317 315 324 323 320 314 313 315 312 310 300 298 299 286 277 284 287 289
230 250 241 227 314 18 51 57 26 44 85 121 143 159 135 342 342 344 345 346 346 343 331 329 335 336 325 320 325 322 312 311 314 316 315 313 306 295 286 278 276 280 283 286
236 254 271 260 208 171 98 73 61 46 43 73 116 123 293 306 318 322 326 333 336 322 312 314 323 324 327 326 323 314 308 308 311 307 304 306 302 286 284 271 268 278 276 275
229 221 216 230 194 151 148 148 125 95 39 29 61 75 335 312 316 319 322 332 329 323 314 311 314 312 319 321 316 304 304 306 304 303 302 303 305 309 298 297 301 301 299 298
256 262 198 142 70 74 125 135 105 102 103 27 8 26 352 313 311 317 318 320 312 309 309 309 307 307 315 315 308 294 286 292 296 297 296 299 302 304 310 316 315 314 314 314
28 76 106 87 28 22 35 52 73 71 59 50 8 7 358 322 307 305 305 310 311 308 306 307 307 308 315 313 304 295 288 285 284 286 288 287 287 288 289 298 309 311 315 316
4 16 132 84 65 43 45 63 67 40 22 9 7 350 325 305 300 303 310 315 313 306 305 307 304 304 314 312 306 298 293 289 288 286 285 284 286 288 289 289 292 301 311 314
344 24 60 76 45 18 28 41 340 297 314 317 316 310 305 300 299 302 306 310 304 301 304 302 297 299 306 304 302 297 290 292 295 290 290 290 289 290 291 291 292 296 299 304
15 327 325 309 295 290 266 258 250 264 285 289 293 306 316 317 310 306 306 305 291 287 289 291 292 298 300 300 296 291 291 293 292 286 279 278 280 281 283 285 285 288 289 293
309 279 257 239 251 271 287 292 284 280 282 292 302 307 301 289 286 291 299 308 307 301 292 290 291 300 308 306 296 284 281 283 281 277 279 278 278 276 275 276 280 283 290 299
1 347 334 321 299 280 279 284 294 295 300 301 296 286 283 282 283 288 297 301 301 301 301 307 314 322 308 302 304 286 284 284 285 283 280 283 285 280 277 278 280 283 288 292
358 354 354 347 348 322 291 300 307 309 310 306 298 296 296 296 293 292 290 282 271 270 288 300 303 300 299 299 309 293 281 278 283 285 285 282 282 284 284 282 281 282 283 284
344 346 348 340 332 330 312 303 305 306 310 304 285 285 288 293 292 287 288 293 292 290 297 299 297 295 296 295 292 281 278 279 278 276 276 277 279 280 280 280 281 281 282 282
330 332 330 327 325 325 325 323 312 300 304 303 298 295 295 295 295 290 273 266 288 304 305 297 294 295 299 296 288 283 279 277 277 277 275 274 274 276 277 278 278 279 280 280
312 313 318 318 311 307 320 321 313 300 296 296 295 292 289 285 284 286 293 291 298 304 305 295 299 303 303 298 290 284 283 281 279 276 274 274 273 273 275 277 278 278 280 282
314 319 319 318 328 335 326 319 316 306 296 293 288 285 288 294 291 271 274 294 300 302 301 298 304 309 313 305 294 287 283 281 279 277 276 275 275 275 275 277 278 279 279 280
304 311 318 325 322 307 304 313 317 314 312 306 298 291 284 274 275 290 293 292 297 304 301 302 307 311 311 300 292 286 283 278 276 277 277 277 277 276 275 275 276 277 277 277
299 294 284 278 277 287 299 307 308 308 312 311 307 299 296 291 286 288 292 292 292 295 294 294 295 299 296 293 290 286 283 284 284 280 276 277 276 274 274 275 276 275 275 276
315 312 309 311 306 296 294 293 294 294 293 295 298 301 302 301 298 297 297 297 298 297 294 294 294 293 293 291 289 286 283 282 280 279 279 277 275 272 273 274 275 275 276 276